TimeCDT,TemperatureF,Dew PointF,Humidity,Sea Level PressureIn,VisibilityMPH,Wind Direction,Wind SpeedMPH,Gust SpeedMPH,PrecipitationIn,Events,Conditions,WindDirDegrees,DateUTC
12:55 AM,49.3,42.4,77,29.84,10.0,West,5.8,-,N/A,,Overcast,270,2012-10-20 05:55:00
1:55 AM,49.1,43.2,80,29.83,10.0,WSW,4.6,-,N/A,,Overcast,240,2012-10-20 06:55:00
2:55 AM,46.8,42.1,84,29.84,10.0,Calm,Calm,-,N/A,,Clear,0,2012-10-20 07:55:00
3:55 AM,43.3,41.9,95,29.85,10.0,Calm,Calm,-,N/A,,Clear,0,2012-10-20 08:55:00
4:55 AM,40.5,40.1,99,29.85,10.0,Calm,Calm,-,N/A,,Clear,0,2012-10-20 09:55:00
5:55 AM,41.2,41.0,99,29.86,10.0,Calm,Calm,-,N/A,,Clear,0,2012-10-20 10:55:00
6:55 AM,39.0,38.8,99,29.87,10.0,South,3.5,-,N/A,,Partly Cloudy,190,2012-10-20 11:55:00
7:55 AM,40.3,40.1,99,29.88,10.0,Calm,Calm,-,N/A,,Overcast,0,2012-10-20 12:55:00
8:55 AM,43.3,43.2,99,29.89,10.0,Calm,Calm,-,N/A,,Mostly Cloudy,0,2012-10-20 13:55:00
9:55 AM,51.8,45.0,77,29.90,10.0,Calm,Calm,-,N/A,,Clear,0,2012-10-20 14:55:00
10:55 AM,55.6,44.2,66,29.88,10.0,East,4.6,-,N/A,,Clear,90,2012-10-20 15:55:00
11:55 AM,59.9,44.8,57,29.88,10.0,South,4.6,-,N/A,,Clear,190,2012-10-20 16:55:00
12:55 PM,63.3,43.7,49,29.86,10.0,SE,3.5,-,N/A,,Clear,140,2012-10-20 17:55:00
1:55 PM,66.2,43.9,44,29.82,10.0,Variable,4.6,-,N/A,,Clear,0,2012-10-20 18:55:00
2:55 PM,68.2,40.8,37,29.79,10.0,SSE,4.6,-,N/A,,Clear,160,2012-10-20 19:55:00
3:55 PM,69.4,42.3,37,29.78,10.0,ESE,8.1,-,N/A,,Clear,120,2012-10-20 20:55:00
4:55 PM,69.4,39.2,33,29.77,10.0,SSE,8.1,-,N/A,,Clear,150,2012-10-20 21:55:00
5:55 PM,67.1,42.8,41,29.76,10.0,ESE,4.6,-,N/A,,Clear,120,2012-10-20 22:55:00
6:55 PM,60.6,43.3,53,29.76,10.0,ESE,5.8,-,N/A,,Clear,120,2012-10-20 23:55:00
7:55 PM,58.5,43.9,58,29.78,10.0,East,6.9,-,N/A,,Clear,100,2012-10-21 00:55:00
8:55 PM,56.1,44.1,64,29.79,10.0,East,5.8,-,N/A,,Clear,80,2012-10-21 01:55:00
9:55 PM,53.8,44.6,71,29.79,10.0,ESE,5.8,-,N/A,,Clear,120,2012-10-21 02:55:00
10:55 PM,53.1,44.1,71,29.80,10.0,ESE,5.8,-,N/A,,Clear,110,2012-10-21 03:55:00
11:55 PM,52.9,44.2,72,29.78,10.0,ESE,8.1,-,N/A,,Clear,120,2012-10-21 04:55:00